DECAYED

STARLINK-1720, 46675 (Decayed)

Orbit data source: Space-Track

STARLINK-1720, 46675 was a payload satellite owned by SpaceX/Seattle (US) in LEO that was launched on Sun, 18 Oct 2020 UTC via an FALCON 9 launch vehicle from the Air Force Eastern Test Range (AFETR). Payload-class satellites include a variety of spacecraft equipped with specific instruments for various scientific and technological missions. These include communications satellites like Starlink; space stations such as the ISS; scientific satellites like the Hubble; Earth observation satellites from companies like Planet Labs, Umbra, and HawkEye 360; GPS; miniature CubeSats for education and research; and military/defense satellites.

Not visible in the next 10 days
Identifier
46675, 2020-073F
Orbit
Decayed
Country
Flag of USUS
Related business
Manufacturer
SpaceX/Seattle
Mission
Decayed Commercial Communications
Bus & Motor
STARLINK, Unknown motor
Mass
260 kg wet, ~248 kg dry
Launch date (UTC)
2020-10-18 (5 years ago)
Launch vehicle
FALCON 9
Launch site
Air Force Eastern Test Range (AFETR)
Object type
Payload
Rocket body
Debris
Shape & HBR
Box + 1 Pan, 10.1 m
Radar Cross Section
13.562 m², Large (>1 m²)

Expand to show TLE details & history
Last TLE update: 1 year ago

TLE from 1 year ago
0 STARLINK-1720
1 46675U 20073F   25006.40578672  .16942595  12520-4  36290-3 0  9990
2 46675  53.0352 331.7694 0001920 167.0749 333.7758 16.46825913233590
Epoch: 2025-01-06T09:44Z
TLE epoch observation values (Epoch: 2025-01-06T09:44:19.972Z)
Latitude
30.40102°
Longitude
-126.58246°
Altitude
148.336 km
Speed
7.822 km/s
True Right ascension
08h 22m 54s
True Declination
30° 14' 14"
Sunlit
Object was in full shadow at epoch
Visualization orbit readout
Latitude
Unknown
Longitude
Unknown
Altitude
Unknown
Speed
Unknown
Apparent Right ascension
Unknown
Apparent Declination
Unknown
Sunlit
N/A
Visualization observer readout
Local Sidereal Time
08:29:19
Azimuth
Unknown
Elevation
Unknown
Doppler factor
Unknown
Orbital elements
Apogee altitude
149.25 km
Perigee altitude
146.744 km
Semi-major axis
6,526.134 km
Eccentricity
0.00019
Inclination
53.0352°
RAAN
331.7694°
Arg. of periapsis
167.0749°
True anomaly
333.76608°
Mean anomaly
333.7758°
Eccentric anomaly
333.77094°
Mean motion
4.11679 °/min
Orbital period
87.45 mins
BSTAR
0.0003629
Loading maneuver chart data...
Computing Atmospheric mass density...
Loading historical data...
Loading historical data...
Loading historical data...
Loading historical data...
Loading historical data...
Loading historical data...
Loading historical data...

Documentation

Showing up to 5 results
|